Hourly Data Report for September 21, 2017

All times are specified in Local Standard Time (LST). Add 1 hour to adjust for Daylight Saving Time where and when it is observed.

MONCTON INTL A
NEW BRUNSWICK

46°06'44.000" N
64°40'43.000" W
70.70 m
8103201
71705
YQM

Download Data

Hourly Data (September 2017)
Hourly Data Report for September 21, 2017
Temp Definition
°C
Dew Point Temp Definition
°C
Rel Hum Definition
%
Wind Dir Definition
10's deg

Wind Spd Definition
km/h
Visibility Definition
km
Stn Press Definition
kPa
Hmdx Definition


Wind Chill Definition


Weather Definition


TIME
00:00 Legend Double Dagger 14.4 13.8 96 3 9 24.1 100.98     LegendNANA
01:00 Legend Double Dagger 12.6 12.3 98 2 9 24.1 100.99     LegendNANA
02:00 Legend Double Dagger 12.1 11.9 98 35 8 24.1 100.98     Clear
03:00 Legend Double Dagger 11.8 11.6 98 35 9 24.1 101.02     LegendNANA
04:00 Legend Double Dagger 13.1 12.9 99 36 10 0.8 101.03     Fog
05:00 Legend Double Dagger 12.4 12.3 99 36 10 0.6 101.06     Fog
06:00 Legend Double Dagger 11.3 11.2 99 36 10 24.1 101.09     LegendNANA
07:00 Legend Double Dagger 11.9 11.7 99 1 7 24.1 101.11     LegendNANA
08:00 Legend Double Dagger 13.7 12.7 94 2 7 24.1 101.18     Mostly Cloudy
09:00 Legend Double Dagger 16.5 13.0 80 3 22 24.1 101.23     LegendNANA
10:00 Legend Double Dagger 17.9 11.0 64 5 18 24.1 101.27     LegendNANA
11:00 Legend Double Dagger 18.8 8.5 51 5 24 24.1 101.30     Mainly Clear
12:00 Legend Double Dagger 19.4 8.6 49 3 28 24.1 101.30     LegendNANA
13:00 Legend Double Dagger 19.2 8.5 49 6 22 24.1 101.29     LegendNANA
14:00 Legend Double Dagger 19.1 8.4 50 4 23 24.1 101.29     Mainly Clear
15:00 Legend Double Dagger 18.7 6.8 45 2 27 24.1 101.30     LegendNANA
16:00 Legend Double Dagger 17.9 6.5 47 5 23 24.1 101.34     LegendNANA
17:00 Legend Double Dagger 16.6 7.2 53 4 22 24.1 101.37     Mainly Clear
18:00 Legend Double Dagger 13.4 6.9 65 7 12 24.1 101.38     LegendNANA
19:00 Legend Double Dagger 10.0 6.4 78 7 13 24.1 101.38     LegendNANA
20:00 Legend Double Dagger 9.2 6.3 82 4 13 24.1 101.40     Mainly Clear
21:00 Legend Double Dagger 8.7 6.0 83 6 10 24.1 101.44     LegendNANA
22:00 Legend Double Dagger 8.0 5.9 86 7 8 24.1 101.44     LegendNANA
23:00 Legend Double Dagger 7.6 6.0 89 10 11 24.1 101.47     Clear

Notes on Data Quality.

Legend

  • E = Estimated
  • M = Missing
  • NA = Not Available
  • ‡ = Partner data that is not subject to review by the National Climate Archives
Date modified: